Denison, IA

3:03 PM CST on January 18, 2017 (GMT -0600)
Denison Municipal

Weather History for KDNS - December, 2012

Change the Weather History Date:

Friday, December 14, 2012

  Actual Average Record
Temperature  
Mean Temperature 36 °F -  
Max Temperature 53 °F 33 °F 57 °F (2014)
Min Temperature 19 °F 18 °F -5 °F (2000)
Degree Days  
Heating Degree Days 29    
Moisture  
Dew Point 27 °F    
Average Humidity 66    
Maximum Humidity 93    
Minimum Humidity 43    
Precipitation  
Precipitation 0.00 in - - ()
Sea Level Pressure  
Sea Level Pressure 29.88 in    
Wind  
Wind Speed 8 mph (SE)    
Max Wind Speed 18 mph    
Max Gust Speed 28 mph    
Visibility 9 miles    
Events      
Averages and records for this station are not official NWS values.
T = Trace of Precipitation, MM = Missing Value Source: NWS Daily Summary

Daily Weather History Graph

Daily Weather History Graph

Search for Another Location

Airport or City:

Trip Planner

Search our weather history database for the weather conditions in past years. The results will help you decide how hot, cold, wet, or windy it might be!

Date:

Astronomy

Dec. 14, 2012 Rise Set
Actual Time 7:42 AM CST 4:50 PM CST
Civil Twilight 7:10 AM CST 5:22 PM CST
Nautical Twilight 6:35 AM CST 5:57 PM CST
Astronomical Twilight 6:01 AM CST 6:31 PM CST
Moon 8:46 AM CST (12/14) 6:45 PM CST (12/14)
Length of Visible Light 10h 12m
Length of Day
9h 08m
Waxing Crescent, 3% of the Moon is Illuminated
Dec 14
Waxing Crescent
Dec 19
First Quarter
Dec 28
Full
Jan 4
Last Quarter
Jan 11
New

Hourly Weather History & Observations

Time (CST) Temp. Windchill Dew Point Humidity Pressure Visibility Wind Dir Wind Speed Gust Speed Precip Events Conditions
1:15 AM 23.0 °F 15.8 °F 17.6 °F 80% 30.07 in 10.0 mi NE 5.8 mph - N/A   Clear
1:55 AM 21.2 °F 13.6 °F 17.6 °F 86% 30.06 in 10.0 mi NE 5.8 mph - N/A   Clear
2:15 AM 21.2 °F 12.6 °F 17.6 °F 86% 30.05 in 10.0 mi NE 6.9 mph - N/A   Clear
2:35 AM 21.2 °F 13.6 °F 17.6 °F 86% 30.04 in 10.0 mi NE 5.8 mph - N/A   Clear
2:55 AM 21.2 °F 12.6 °F 17.6 °F 86% 30.05 in 10.0 mi NNE 6.9 mph - N/A   Clear
3:15 AM 21.2 °F 11.7 °F 17.6 °F 86% 30.05 in 10.0 mi NNE 8.1 mph - N/A   Clear
3:35 AM 21.2 °F 12.6 °F 17.6 °F 86% 30.05 in 8.0 mi ENE 6.9 mph - N/A   Clear
3:55 AM 21.2 °F 12.6 °F 17.6 °F 86% 30.04 in 8.0 mi ENE 6.9 mph - N/A   Clear
4:15 AM 21.2 °F 14.9 °F 17.6 °F 86% 30.03 in 8.0 mi NE 4.6 mph - N/A   Clear
4:35 AM 21.2 °F 14.9 °F 17.6 °F 86% 30.02 in 8.0 mi East 4.6 mph - N/A   Clear
4:55 AM 21.2 °F 12.6 °F 17.6 °F 86% 30.02 in 8.0 mi NNE 6.9 mph - N/A   Clear
5:15 AM 21.2 °F 11.7 °F 17.6 °F 86% 30.01 in 8.0 mi NNE 8.1 mph - N/A   Clear
5:35 AM 21.2 °F 14.9 °F 17.6 °F 86% 30.02 in 8.0 mi NE 4.6 mph - N/A   Clear
5:55 AM 21.2 °F 12.6 °F 17.6 °F 86% 30.01 in 7.0 mi NE 6.9 mph - N/A   Clear
6:15 AM 19.4 °F 11.5 °F 17.6 °F 93% 30.00 in 7.0 mi NE 5.8 mph - N/A   Clear
6:35 AM 19.4 °F 12.8 °F 15.8 °F 86% 30.01 in 7.0 mi NE 4.6 mph - N/A   Clear
6:55 AM 21.2 °F 12.6 °F 17.6 °F 86% 29.99 in 8.0 mi ENE 6.9 mph - N/A   Clear
7:15 AM 19.4 °F 14.3 °F 15.8 °F 86% 29.99 in 8.0 mi ENE 3.5 mph - N/A   Clear
7:35 AM 19.4 °F 11.5 °F 15.8 °F 86% 29.99 in 7.0 mi NNE 5.8 mph - N/A   Clear
7:55 AM 19.4 °F - 15.8 °F 86% 29.99 in 6.0 mi Calm Calm - N/A   Clear
8:15 AM 21.2 °F 14.9 °F 17.6 °F 86% 29.98 in 7.0 mi ENE 4.6 mph - N/A   Clear
8:35 AM 24.8 °F - 19.4 °F 80% 29.98 in 8.0 mi Calm Calm - N/A   Clear
8:55 AM 24.8 °F 19.1 °F 19.4 °F 80% 29.98 in 6.0 mi North 4.6 mph - N/A   Clear
9:15 AM 30.2 °F - 23.0 °F 75% 29.97 in 8.0 mi Calm Calm - N/A   Clear
9:35 AM 35.6 °F 29.9 °F 24.8 °F 65% 29.97 in 8.0 mi SSE 6.9 mph - N/A   Clear
9:55 AM 39.2 °F 31.6 °F 26.6 °F 61% 29.96 in 10.0 mi SSE 12.7 mph - N/A   Clear
10:15 AM 41.0 °F 34.7 °F 26.6 °F 57% 29.96 in 10.0 mi South 10.4 mph - N/A   Clear
10:35 AM 42.8 °F 36.2 °F 26.6 °F 53% 29.95 in 9.0 mi SSE 12.7 mph 18.4 mph N/A   Clear
10:55 AM 42.8 °F 36.6 °F 26.6 °F 53% 29.94 in 10.0 mi South 11.5 mph - N/A   Clear
11:15 AM 44.6 °F 39.2 °F 26.6 °F 49% 29.93 in 10.0 mi SSE 10.4 mph - N/A   Clear
11:35 AM 46.4 °F 40.1 °F 28.4 °F 50% 29.92 in 10.0 mi SSE 15.0 mph - N/A   Clear
11:55 AM 48.2 °F - 28.4 °F 46% 29.90 in 10.0 mi South 11.5 mph 18.4 mph N/A   Clear
12:15 PM 50.0 °F - 28.4 °F 43% 29.89 in 10.0 mi South 11.5 mph - N/A   Clear
12:35 PM 50.0 °F - 28.4 °F 43% 29.87 in 10.0 mi South 10.4 mph - N/A   Clear
12:55 PM 50.0 °F - 28.4 °F 43% 29.86 in 10.0 mi South 12.7 mph - N/A   Clear
1:15 PM 50.0 °F - 30.2 °F 47% 29.85 in 10.0 mi South 12.7 mph 18.4 mph N/A   Clear
1:35 PM 51.8 °F - 30.2 °F 44% 29.84 in 10.0 mi South 12.7 mph 20.7 mph N/A   Clear
1:55 PM 51.8 °F - 30.2 °F 44% 29.82 in 10.0 mi South 12.7 mph 21.9 mph N/A   Clear
2:15 PM 53.6 °F - 32.0 °F 44% 29.81 in 10.0 mi South 16.1 mph 23.0 mph N/A   Clear
2:35 PM 53.6 °F - 32.0 °F 44% 29.80 in 10.0 mi South 11.5 mph 19.6 mph N/A   Clear
2:55 PM 53.6 °F - 32.0 °F 44% 29.79 in 10.0 mi South 12.7 mph - N/A   Clear
3:15 PM 51.8 °F - 32.0 °F 47% 29.78 in 10.0 mi SSE 12.7 mph 20.7 mph N/A   Clear
3:35 PM 51.8 °F - 32.0 °F 47% 29.78 in 10.0 mi SSE 10.4 mph 17.3 mph N/A   Clear
3:55 PM 50.0 °F - 32.0 °F 50% 29.79 in 10.0 mi SSE 12.7 mph - N/A   Clear
4:15 PM 50.0 °F - 32.0 °F 50% 29.79 in 10.0 mi SSE 15.0 mph - N/A   Clear
4:35 PM 50.0 °F - 32.0 °F 50% 29.78 in 10.0 mi SSE 13.8 mph 19.6 mph N/A   Clear
4:55 PM 50.0 °F - 32.0 °F 50% 29.78 in 10.0 mi SSE 11.5 mph 19.6 mph N/A   Clear
5:15 PM 50.0 °F - 32.0 °F 50% 29.77 in 10.0 mi SSE 11.5 mph 19.6 mph N/A   Mostly Cloudy
5:35 PM 48.2 °F - 32.0 °F 54% 29.77 in 10.0 mi SE 10.4 mph 20.7 mph N/A   Overcast
5:55 PM 48.2 °F - 33.8 °F 58% 29.76 in 10.0 mi SSE 12.7 mph - N/A   Overcast
6:35 PM 50.0 °F - 33.8 °F 54% 29.77 in 10.0 mi SSE 13.8 mph 19.6 mph N/A   Overcast
6:55 PM 50.0 °F - 33.8 °F 54% 29.76 in 10.0 mi SSE 15.0 mph 21.9 mph N/A   Overcast
7:35 PM 50.0 °F - 33.8 °F 54% 29.75 in 10.0 mi South 18.4 mph - N/A   Overcast
7:55 PM 48.2 °F - 33.8 °F 58% 29.75 in 10.0 mi SSE 13.8 mph 23.0 mph N/A   Overcast
8:15 PM 48.2 °F - 33.8 °F 58% 29.74 in 10.0 mi SSE 16.1 mph 24.2 mph N/A   Overcast
8:55 PM 48.2 °F - 33.8 °F 58% 29.73 in 10.0 mi South 16.1 mph 21.9 mph N/A   Overcast
9:15 PM 48.2 °F - 33.8 °F 58% 29.72 in 10.0 mi SSE 15.0 mph 21.9 mph N/A   Overcast
9:35 PM 48.2 °F - 33.8 °F 58% 29.71 in 10.0 mi South 17.3 mph - N/A   Overcast
9:55 PM 48.2 °F - 33.8 °F 58% 29.70 in 10.0 mi South 17.3 mph 26.5 mph N/A   Overcast
10:15 PM 48.2 °F - 35.6 °F 62% 29.69 in 10.0 mi SSE 16.1 mph 27.6 mph N/A   Overcast
10:35 PM 48.2 °F - 37.4 °F 66% 29.67 in 10.0 mi SSE 13.8 mph - N/A   Overcast
10:55 PM 48.2 °F - 39.2 °F 71% 29.66 in 10.0 mi SSE 11.5 mph 20.7 mph N/A   Overcast
11:15 PM 46.4 °F 42.9 °F 41.0 °F 81% 29.64 in 10.0 mi SSE 6.9 mph 13.8 mph N/A   Overcast
11:55 PM 46.4 °F 41.1 °F 41.0 °F 81% 29.61 in 10.0 mi SSE 11.5 mph - N/A   Overcast